User: anonymous
Location: Caltech
(34.1382°N, 118.1253°W)
Time: 22:07:14
(UTC-07:00)
Language:

Cosmos 1125 Rocket - Orbit

View from above orbital plane
View from above orbital plane
View from above satellite
View from above satellite

Ground track
Ground track

The orbit data is extracted from the following two-line orbital elements,

1 11511U 79078B   14237.49321909  .00000146  00000-0  58585-4 0  8674
2 11511 074.0378 042.0199 0015593 180.3063 236.8696 14.36438136831190
Epoch (UTC): 25 August 2014 11:50:14
Eccentricity: 0.0015593
inclination: 74.0378°
perigee height: 759 km
apogee height: 781 km
right ascension of ascending node: 42.0199°
argument of perigee: 180.3063°
revolutions per day: 14.36438136
mean anomaly at epoch: 236.8696°
orbit number at epoch: 83119

The dashed part of the orbit path shows where the satellite is in the earth's shadow,  

DLR